Airfield :
LOGIN :

Register | Disclaimer

   EN    FR    IT 

 










Legend :    VFR   Marginal VFR   IFR   Intensive IFR   Very Intensive IFR
Visi :
Ceiling :
>= 8 km
>= 3000ft
5 to 8 km
1000 to 3000 ft
1500m to 5 km
500 to 1000 ft
800 to 1500m
200 to 500 ft
< 800m
< 200 ft
Symbols :   Thunderstorms  Fog  Heavy snow  Heavy precipitations  Wind > 20 kt
SIGMETs :     Misc.  Thunderstorms  Icing  Turbulence  Mountain Waves  Volcanic Ashes







- Airport Elevation : 308 ft


ESCF - Malmen AB

CURRENT METAR :
  • 221120Z 08005KT CAVOK 23/16 Q1010

EXPIRED METARs :
  • 221050Z 08005KT 030V140 CAVOK 23/15 Q1010
  • 221020Z 07006KT 030V100 CAVOK 22/15 Q1010
  • 220950Z 06004KT 360V100 CAVOK 22/15 Q1010
  • 220920Z 01004KT 340V050 CAVOK 21/15 Q1010
  • 220850Z VRB04KT CAVOK 20/14 Q1010

TAF TAF ESCF
Valid from the 22 at 12:00 until the 22 at 15:00 UTC


221130Z 2212/2215 09004G10KT CAVOK
TEMPO 2212/2214 SCT040TCU
PROB30 2214/2215 5000 TSRA SCT040CB RMK MIL
No reported NOTAMs for that airfield.



MET'MAP, your aeronautical weather chart ! - Copyright ORBIFLY December 2007 - Disclaimer

ORBIFLY MET'MAP TEAM :

Programming & Development : Alexandra Zaïnal
Concept & Development : Baudouin d'Aumeries
Co-Development & Prog : Marc-Olivier Méhu
Technical & hardware support : Manuel Goepfert

Contact : metmap@orbifly.com




SOURCES & CREDITS :

   NOAA